CFG1HX EGKK-EDDF

Flight info

Callsign CFG1HX
Flight time 1h 13m
Altitude 35000
Route MIMFO DCT DVR UL9 KONAN UL607 KOK DCT REMBA UL607 SPI T180 NIVNU/N0405F230 T847 IMCOM IMCOM1B
Aircraft A319/M-SDE3FGHIRWY/LB1

Departure

Time 2026-04-18 08:54
Airport London Gatwick Airport (EGKK)

Arrival

Time 2026-04-18 10:07
Airport Frankfurt Main Airport (EDDF)
Time Latitude Longitude Altitude Speed Heading
2026-04-18 08:26 51.15978 -0.17138 204 ft 0 kts 315°
2026-04-18 08:41 51.15974 -0.17132 204 ft 4 kts 315°
2026-04-18 08:42 51.15955 -0.17101 217 ft 4 kts 310°
2026-04-18 08:42 51.15939 -0.17066 208 ft 4 kts 298°
2026-04-18 08:42 51.15931 -0.17029 208 ft 4 kts 256°
2026-04-18 08:42 51.15938 -0.17011 216 ft 1 kts 218°
2026-04-18 08:43 51.15939 -0.17009 216 ft 0 kts 218°
2026-04-18 08:45 51.15919 -0.17033 207 ft 6 kts 217°
2026-04-18 08:46 51.15866 -0.17074 208 ft 11 kts 195°
2026-04-18 08:46 51.15809 -0.17170 204 ft 15 kts 257°
2026-04-18 08:46 51.15787 -0.17341 205 ft 16 kts 258°
2026-04-18 08:46 51.15767 -0.17501 205 ft 0 kts 258°
2026-04-18 08:47 51.15761 -0.17504 213 ft 4 kts 204°
2026-04-18 08:47 51.15703 -0.17493 213 ft 10 kts 170°
2026-04-18 08:47 51.15635 -0.17468 209 ft 10 kts 166°
2026-04-18 08:48 51.15565 -0.17442 210 ft 10 kts 168°
2026-04-18 08:48 51.15493 -0.17419 209 ft 11 kts 168°
2026-04-18 08:48 51.15431 -0.17399 214 ft 0 kts 166°
2026-04-18 08:48 51.15427 -0.17397 212 ft 1 kts 166°
2026-04-18 08:49 51.15420 -0.17395 209 ft 0 kts 166°
2026-04-18 08:49 51.15420 -0.17394 209 ft 1 kts 166°
2026-04-18 08:49 51.15363 -0.17373 209 ft 16 kts 167°
2026-04-18 08:49 51.15261 -0.17331 214 ft 10 kts 144°
2026-04-18 08:50 51.15200 -0.17262 203 ft 12 kts 145°
2026-04-18 08:50 51.15168 -0.17226 215 ft 0 kts 145°
2026-04-18 08:52 51.15158 -0.17216 205 ft 8 kts 150°
2026-04-18 08:52 51.15047 -0.17362 209 ft 26 kts 243°
2026-04-18 08:52 51.15029 -0.17442 214 ft 0 kts 254°
2026-04-18 08:53 51.15029 -0.17443 204 ft 1 kts 254°
2026-04-18 08:53 51.15002 -0.17635 205 ft 53 kts 258°
2026-04-18 08:53 51.14871 -0.18591 202 ft 123 kts 258°
2026-04-18 08:54 51.14651 -0.20169 414 ft 154 kts 261°
2026-04-18 08:54 51.14415 -0.21785 1215 ft 146 kts 258°
2026-04-18 08:54 51.14168 -0.23329 2011 ft 142 kts 258°
2026-04-18 08:54 51.13909 -0.24810 2723 ft 136 kts 258°
2026-04-18 08:55 51.13661 -0.26254 3350 ft 137 kts 261°
2026-04-18 08:55 51.13577 -0.27857 3690 ft 156 kts 278°
2026-04-18 08:55 51.13917 -0.29620 3977 ft 182 kts 296°
2026-04-18 08:55 51.14802 -0.31298 4022 ft 210 kts 321°
2026-04-18 08:56 51.16188 -0.32190 4000 ft 223 kts 351°
2026-04-18 08:56 51.17736 -0.31827 4008 ft 232 kts 22°
2026-04-18 08:56 51.18969 -0.30147 4008 ft 239 kts 56°
2026-04-18 08:56 51.19495 -0.27633 4016 ft 242 kts 78°
2026-04-18 08:57 51.20119 -0.22351 4018 ft 243 kts 78°
2026-04-18 08:57 51.20432 -0.19696 4015 ft 247 kts 78°
2026-04-18 08:57 51.20777 -0.16936 4012 ft 267 kts 77°
2026-04-18 08:58 51.21157 -0.13989 4091 ft 280 kts 77°
2026-04-18 08:58 51.21564 -0.10898 4850 ft 285 kts 77°
2026-04-18 08:58 51.21971 -0.07816 4988 ft 282 kts 77°
2026-04-18 08:58 51.22372 -0.04765 5009 ft 281 kts 77°
2026-04-18 08:59 51.22772 -0.01715 5016 ft 281 kts 77°
2026-04-18 08:59 51.23173 0.01354 4896 ft 284 kts 78°
2026-04-18 08:59 51.23577 0.04454 4879 ft 286 kts 78°
2026-04-18 08:59 51.23979 0.07562 4853 ft 286 kts 78°
2026-04-18 09:00 51.24380 0.10681 4829 ft 286 kts 78°
2026-04-18 09:00 51.24781 0.13801 4811 ft 286 kts 78°
2026-04-18 09:00 51.25184 0.16914 4793 ft 286 kts 78°
2026-04-18 09:00 51.25436 0.20062 4770 ft 287 kts 90°
2026-04-18 09:01 51.25234 0.23278 5280 ft 294 kts 99°
2026-04-18 09:01 51.24968 0.26524 5650 ft 293 kts 99°
2026-04-18 09:01 51.24726 0.29733 5698 ft 291 kts 99°
2026-04-18 09:01 51.24491 0.32940 5683 ft 291 kts 99°
2026-04-18 09:02 51.24258 0.36159 5682 ft 291 kts 99°
2026-04-18 09:02 51.24024 0.39361 5683 ft 291 kts 99°
2026-04-18 09:02 51.23789 0.42524 5773 ft 291 kts 99°
2026-04-18 09:02 51.23546 0.45728 5889 ft 291 kts 99°
2026-04-18 09:03 51.23300 0.48937 5909 ft 292 kts 100°
2026-04-18 09:03 51.23047 0.52199 6310 ft 300 kts 101°
2026-04-18 09:03 51.22793 0.55480 7389 ft 298 kts 100°
2026-04-18 09:03 51.22537 0.58787 8382 ft 302 kts 100°
2026-04-18 09:04 51.22277 0.62123 9320 ft 306 kts 99°
2026-04-18 09:04 51.22009 0.65516 10204 ft 312 kts 99°
2026-04-18 09:04 51.21723 0.69080 10583 ft 336 kts 99°
2026-04-18 09:04 51.21417 0.72894 10923 ft 358 kts 99°
2026-04-18 09:05 51.21207 0.75545 11333 ft 365 kts 99°
2026-04-18 09:05 51.20888 0.79598 12085 ft 371 kts 99°
2026-04-18 09:05 51.20563 0.83719 12896 ft 377 kts 99°
2026-04-18 09:05 51.20232 0.87884 13688 ft 381 kts 100°
2026-04-18 09:06 51.19895 0.92110 14399 ft 387 kts 100°
2026-04-18 09:06 51.19549 0.96392 15124 ft 391 kts 100°
2026-04-18 09:06 51.19197 1.00693 15823 ft 394 kts 100°
2026-04-18 09:06 51.18836 1.05046 16500 ft 398 kts 100°
2026-04-18 09:07 51.18472 1.09437 17157 ft 402 kts 100°
2026-04-18 09:07 51.18102 1.13897 17809 ft 407 kts 100°
2026-04-18 09:07 51.17736 1.18334 18448 ft 411 kts 101°
2026-04-18 09:07 51.17360 1.22875 19016 ft 416 kts 101°
2026-04-18 09:08 51.16976 1.27463 19580 ft 420 kts 101°
2026-04-18 09:08 51.16582 1.32089 20138 ft 424 kts 101°
2026-04-18 09:08 51.16187 1.36770 20705 ft 428 kts 100°
2026-04-18 09:08 51.15870 1.41509 21265 ft 433 kts 98°
2026-04-18 09:09 51.15631 1.46315 21800 ft 437 kts 97°
2026-04-18 09:09 51.15435 1.51176 22331 ft 442 kts 96°
2026-04-18 09:09 51.15247 1.56083 22854 ft 446 kts 96°
2026-04-18 09:09 51.15049 1.61028 23363 ft 450 kts 96°
2026-04-18 09:10 51.14829 1.66021 23842 ft 453 kts 97°
2026-04-18 09:10 51.14586 1.71039 24256 ft 457 kts 97°
2026-04-18 09:10 51.14327 1.76107 24658 ft 461 kts 98°
2026-04-18 09:10 51.14061 1.81218 25057 ft 464 kts 98°
2026-04-18 09:11 51.13790 1.86361 25452 ft 468 kts 98°
2026-04-18 09:11 51.13515 1.91545 25816 ft 471 kts 99°
2026-04-18 09:11 51.13240 1.96701 26183 ft 475 kts 99°
2026-04-18 09:11 51.12958 2.02022 26569 ft 479 kts 99°
2026-04-18 09:12 51.12681 2.07261 26946 ft 482 kts 99°
2026-04-18 09:12 51.12399 2.12603 27328 ft 486 kts 99°
2026-04-18 09:12 51.12114 2.17986 27724 ft 489 kts 99°
2026-04-18 09:12 51.11824 2.23397 28092 ft 493 kts 99°
2026-04-18 09:13 51.11529 2.28851 28468 ft 496 kts 99°
2026-04-18 09:13 51.11227 2.34336 28825 ft 499 kts 99°
2026-04-18 09:13 51.10920 2.39850 29151 ft 502 kts 99°
2026-04-18 09:13 51.10609 2.45389 29519 ft 504 kts 99°
2026-04-18 09:14 51.10294 2.50958 29852 ft 507 kts 100°
2026-04-18 09:14 51.09970 2.56553 30184 ft 510 kts 100°
2026-04-18 09:14 51.09634 2.62172 30477 ft 511 kts 101°
2026-04-18 09:14 51.09006 2.67716 30767 ft 507 kts 110°
2026-04-18 09:15 51.08043 2.73112 31072 ft 506 kts 112°
2026-04-18 09:15 51.07064 2.78485 31501 ft 505 kts 112°
2026-04-18 09:15 51.06093 2.83843 31919 ft 503 kts 112°
2026-04-18 09:15 51.05129 2.89175 32375 ft 501 kts 111°
2026-04-18 09:16 51.04163 2.94486 32833 ft 499 kts 111°
2026-04-18 09:16 51.03199 2.99766 33274 ft 498 kts 111°
2026-04-18 09:16 51.02231 3.05038 33709 ft 496 kts 112°
2026-04-18 09:16 51.01261 3.10290 34135 ft 495 kts 112°
2026-04-18 09:17 51.00293 3.15520 34518 ft 493 kts 112°
2026-04-18 09:17 50.99328 3.20736 34886 ft 492 kts 111°
2026-04-18 09:17 50.98362 3.25945 35152 ft 491 kts 111°
2026-04-18 09:17 50.97400 3.31119 35183 ft 489 kts 111°
2026-04-18 09:18 50.96344 3.36788 35224 ft 487 kts 111°
2026-04-18 09:18 50.94411 3.47101 35219 ft 486 kts 112°
2026-04-18 09:19 50.92472 3.57377 35221 ft 486 kts 112°
2026-04-18 09:19 50.90535 3.67580 35221 ft 486 kts 112°
2026-04-18 09:20 50.88581 3.77826 35206 ft 486 kts 112°
2026-04-18 09:20 50.86615 3.88086 35214 ft 486 kts 112°
2026-04-18 09:21 50.84650 3.98321 35226 ft 485 kts 112°
2026-04-18 09:21 50.82676 4.08534 35232 ft 485 kts 112°
2026-04-18 09:22 50.80681 4.18734 35237 ft 485 kts 112°
2026-04-18 09:22 50.78685 4.28911 35208 ft 485 kts 112°
2026-04-18 09:23 50.76686 4.39079 35216 ft 485 kts 112°
2026-04-18 09:23 50.74678 4.49244 35231 ft 485 kts 112°
2026-04-18 09:24 50.72656 4.59412 35233 ft 485 kts 112°
2026-04-18 09:24 50.70636 4.69498 35203 ft 485 kts 112°
2026-04-18 09:25 50.68603 4.79633 35210 ft 484 kts 112°
2026-04-18 09:25 50.66558 4.89755 35213 ft 484 kts 112°
2026-04-18 09:26 50.64502 4.99848 35216 ft 484 kts 112°
2026-04-18 09:26 50.62430 5.09935 35215 ft 484 kts 112°
2026-04-18 09:27 50.60346 5.20011 35212 ft 483 kts 112°
2026-04-18 09:27 50.58261 5.30057 35218 ft 482 kts 112°
2026-04-18 09:28 50.56162 5.40076 35214 ft 482 kts 112°
2026-04-18 09:28 50.54063 5.50086 35213 ft 482 kts 112°
2026-04-18 09:29 50.51957 5.60083 35202 ft 481 kts 112°
2026-04-18 09:29 50.49923 5.70100 35201 ft 481 kts 111°
2026-04-18 09:30 50.48073 5.80206 34954 ft 481 kts 110°
2026-04-18 09:30 50.47166 5.85260 34714 ft 481 kts 110°
2026-04-18 09:30 50.46245 5.90313 34472 ft 481 kts 110°
2026-04-18 09:31 50.45309 5.95350 34213 ft 481 kts 110°
2026-04-18 09:31 50.44359 6.00393 33660 ft 481 kts 110°
2026-04-18 09:31 50.43412 6.05367 33095 ft 481 kts 110°
2026-04-18 09:31 50.42450 6.10385 32565 ft 481 kts 110°
2026-04-18 09:32 50.41481 6.15420 32030 ft 483 kts 110°
2026-04-18 09:32 50.40509 6.20462 31520 ft 484 kts 110°
2026-04-18 09:32 50.39533 6.25527 31052 ft 485 kts 110°
2026-04-18 09:32 50.38558 6.30591 30797 ft 487 kts 109°
2026-04-18 09:33 50.37580 6.35689 30545 ft 489 kts 109°
2026-04-18 09:33 50.36660 6.40822 29590 ft 492 kts 104°
2026-04-18 09:33 50.36159 6.46101 28992 ft 486 kts 97°
2026-04-18 09:33 50.35847 6.51323 28310 ft 480 kts 97°
2026-04-18 09:34 50.35523 6.56501 27660 ft 474 kts 97°
2026-04-18 09:34 50.35193 6.61614 27024 ft 469 kts 97°
2026-04-18 09:34 50.34863 6.66677 26411 ft 465 kts 97°
2026-04-18 09:34 50.34534 6.71688 25783 ft 461 kts 97°
2026-04-18 09:35 50.34207 6.76645 25165 ft 456 kts 97°
2026-04-18 09:35 50.33882 6.81566 24554 ft 452 kts 98°
2026-04-18 09:35 50.33277 6.86372 23963 ft 447 kts 108°
2026-04-18 09:35 50.32214 6.90897 23325 ft 441 kts 117°
2026-04-18 09:36 50.30921 6.95210 22779 ft 434 kts 117°
2026-04-18 09:36 50.29649 6.99456 22271 ft 429 kts 117°
2026-04-18 09:36 50.28394 7.03662 21718 ft 426 kts 117°
2026-04-18 09:36 50.27148 7.07847 21164 ft 423 kts 117°
2026-04-18 09:37 50.25910 7.12003 20613 ft 421 kts 117°
2026-04-18 09:37 50.24676 7.16139 20068 ft 420 kts 117°
2026-04-18 09:37 50.23441 7.20266 19514 ft 418 kts 117°
2026-04-18 09:37 50.22208 7.24372 18972 ft 417 kts 117°
2026-04-18 09:38 50.20975 7.28454 18413 ft 415 kts 117°
2026-04-18 09:38 50.19747 7.32527 17834 ft 413 kts 116°
2026-04-18 09:38 50.18610 7.36632 17284 ft 410 kts 113°
2026-04-18 09:38 50.17591 7.40765 16766 ft 407 kts 111°
2026-04-18 09:39 50.16638 7.44917 16231 ft 404 kts 110°
2026-04-18 09:39 50.15711 7.49047 15703 ft 402 kts 110°
2026-04-18 09:39 50.14784 7.53139 15173 ft 399 kts 110°
2026-04-18 09:39 50.13844 7.57191 14651 ft 396 kts 111°
2026-04-18 09:40 50.12891 7.61201 14130 ft 393 kts 111°
2026-04-18 09:40 50.11939 7.65158 13579 ft 390 kts 111°
2026-04-18 09:40 50.10833 7.68978 13080 ft 383 kts 121°
2026-04-18 09:40 50.09364 7.72344 12941 ft 372 kts 127°
2026-04-18 09:41 50.07885 7.75629 12852 ft 369 kts 126°
2026-04-18 09:41 50.06432 7.78905 12760 ft 368 kts 126°
2026-04-18 09:41 50.04987 7.82179 12628 ft 366 kts 126°
2026-04-18 09:41 50.03550 7.85437 12484 ft 365 kts 126°
2026-04-18 09:42 50.02111 7.88685 12360 ft 364 kts 126°
2026-04-18 09:42 50.00673 7.91919 12227 ft 363 kts 126°
2026-04-18 09:42 49.99257 7.95156 12096 ft 362 kts 122°
2026-04-18 09:42 49.98022 7.98566 11961 ft 361 kts 120°
2026-04-18 09:43 49.96796 8.01975 11831 ft 360 kts 120°
2026-04-18 09:43 49.95575 8.05367 11697 ft 359 kts 120°
2026-04-18 09:43 49.94358 8.08744 11574 ft 358 kts 120°
2026-04-18 09:43 49.93144 8.12103 11431 ft 357 kts 120°
2026-04-18 09:44 49.91944 8.15420 11307 ft 356 kts 120°
2026-04-18 09:44 49.90736 8.18762 11172 ft 355 kts 121°
2026-04-18 09:44 49.89564 8.22109 11032 ft 353 kts 115°
2026-04-18 09:44 49.88810 8.25727 10910 ft 352 kts 101°
2026-04-18 09:45 49.88628 8.29487 10780 ft 351 kts 87°
2026-04-18 09:45 49.89015 8.33193 10646 ft 342 kts 73°
2026-04-18 09:45 49.89798 8.36582 10536 ft 328 kts 69°
2026-04-18 09:45 49.90586 8.39829 10399 ft 315 kts 69°
2026-04-18 09:46 49.91342 8.42959 10276 ft 304 kts 70°
2026-04-18 09:46 49.92075 8.46012 10029 ft 298 kts 70°
2026-04-18 09:46 49.92790 8.49004 9974 ft 296 kts 70°
2026-04-18 09:46 49.93507 8.52007 9911 ft 296 kts 70°
2026-04-18 09:47 49.94222 8.54994 9843 ft 296 kts 70°
2026-04-18 09:47 49.94941 8.57992 9748 ft 295 kts 70°
2026-04-18 09:47 49.95656 8.60979 9647 ft 295 kts 70°
2026-04-18 09:47 49.96369 8.63958 9539 ft 294 kts 70°
2026-04-18 09:48 49.97081 8.66945 9430 ft 294 kts 70°
2026-04-18 09:48 49.97789 8.69917 9323 ft 293 kts 70°
2026-04-18 09:48 49.98257 8.71885 9256 ft 293 kts 70°
2026-04-18 09:48 49.98961 8.74854 9146 ft 293 kts 70°
2026-04-18 09:49 49.99665 8.77822 9043 ft 292 kts 70°
2026-04-18 09:49 50.00594 8.81742 8891 ft 292 kts 70°
2026-04-18 09:49 50.01069 8.83746 8829 ft 291 kts 70°
2026-04-18 09:49 50.01995 8.87666 8684 ft 291 kts 70°
2026-04-18 09:50 50.02465 8.89665 8607 ft 291 kts 70°
2026-04-18 09:50 50.03158 8.92612 8508 ft 290 kts 70°
2026-04-18 09:50 50.03854 8.95559 8403 ft 290 kts 70°
2026-04-18 09:50 50.04543 8.98466 8300 ft 290 kts 71°
2026-04-18 09:51 50.05234 9.01409 8192 ft 289 kts 71°
2026-04-18 09:51 50.05918 9.04340 8089 ft 289 kts 71°
2026-04-18 09:51 50.06606 9.07283 7992 ft 289 kts 71°
2026-04-18 09:51 50.07294 9.10224 7869 ft 289 kts 71°
2026-04-18 09:52 50.07989 9.13187 7768 ft 289 kts 71°
2026-04-18 09:52 50.08677 9.16131 7670 ft 288 kts 71°
2026-04-18 09:52 50.09354 9.19028 7548 ft 287 kts 71°
2026-04-18 09:52 50.10032 9.21947 7458 ft 287 kts 71°
2026-04-18 09:53 50.10710 9.24883 7346 ft 287 kts 71°
2026-04-18 09:53 50.11385 9.27806 7250 ft 286 kts 71°
2026-04-18 09:53 50.12056 9.30719 7142 ft 286 kts 71°
2026-04-18 09:53 50.12732 9.33646 7040 ft 286 kts 71°
2026-04-18 09:54 50.13404 9.36551 6942 ft 285 kts 71°
2026-04-18 09:54 50.14074 9.39467 6816 ft 285 kts 71°
2026-04-18 09:54 50.14744 9.42385 6601 ft 285 kts 71°
2026-04-18 09:54 50.15408 9.45275 6445 ft 283 kts 71°
2026-04-18 09:55 50.16289 9.48002 6361 ft 284 kts 51°
2026-04-18 09:55 50.17840 9.49863 6292 ft 283 kts 22°
2026-04-18 09:55 50.19727 9.50414 6227 ft 280 kts 355°
2026-04-18 09:55 50.21566 9.49589 6161 ft 275 kts 327°
2026-04-18 09:56 50.22957 9.47610 6092 ft 271 kts 301°
2026-04-18 09:56 50.23640 9.44918 6034 ft 267 kts 276°
2026-04-18 09:56 50.23517 9.42070 5966 ft 263 kts 252°
2026-04-18 09:56 50.22929 9.39371 5889 ft 263 kts 249°
2026-04-18 09:57 50.22307 9.36668 5790 ft 264 kts 249°
2026-04-18 09:57 50.21682 9.33987 5689 ft 262 kts 248°
2026-04-18 09:57 50.21054 9.31302 5599 ft 263 kts 248°
2026-04-18 09:57 50.20433 9.28631 5509 ft 261 kts 249°
2026-04-18 09:58 50.19817 9.25965 5407 ft 261 kts 249°
2026-04-18 09:58 50.19201 9.23296 5318 ft 261 kts 249°
2026-04-18 09:58 50.18584 9.20632 5222 ft 261 kts 249°
2026-04-18 09:58 50.17966 9.17968 5127 ft 260 kts 250°
2026-04-18 09:59 50.17354 9.15325 5033 ft 258 kts 250°
2026-04-18 09:59 50.16738 9.12696 4938 ft 258 kts 250°
2026-04-18 09:59 50.16109 9.10075 4848 ft 258 kts 250°
2026-04-18 10:00 50.14880 9.04816 4659 ft 257 kts 250°
2026-04-18 10:00 50.14278 9.02235 4577 ft 254 kts 250°
2026-04-18 10:00 50.13679 8.99670 4480 ft 240 kts 250°
2026-04-18 10:00 50.13130 8.97321 4387 ft 228 kts 250°
2026-04-18 10:01 50.12602 8.95064 4326 ft 216 kts 250°
2026-04-18 10:01 50.12091 8.92886 4244 ft 207 kts 251°
2026-04-18 10:01 50.11615 8.90855 4200 ft 197 kts 251°
2026-04-18 10:01 50.11157 8.88905 4100 ft 187 kts 251°
2026-04-18 10:02 50.10724 8.87063 4035 ft 174 kts 251°
2026-04-18 10:02 50.10323 8.85358 3889 ft 163 kts 251°
2026-04-18 10:02 50.09941 8.83733 3716 ft 156 kts 251°
2026-04-18 10:02 50.09586 8.82226 3514 ft 142 kts 251°
2026-04-18 10:03 50.09250 8.80802 3345 ft 140 kts 252°
2026-04-18 10:03 50.08914 8.79376 3131 ft 138 kts 252°
2026-04-18 10:03 50.08588 8.77993 2960 ft 136 kts 251°
2026-04-18 10:03 50.08264 8.76624 2784 ft 134 kts 251°
2026-04-18 10:04 50.07997 8.75233 2618 ft 134 kts 262°
2026-04-18 10:04 50.07868 8.73801 2363 ft 133 kts 264°
2026-04-18 10:04 50.07731 8.72377 2115 ft 133 kts 260°
2026-04-18 10:04 50.07460 8.70999 1901 ft 134 kts 251°
2026-04-18 10:05 50.07123 8.69670 1729 ft 133 kts 250°
2026-04-18 10:05 50.06778 8.68332 1639 ft 133 kts 251°
2026-04-18 10:05 50.06457 8.66969 1518 ft 135 kts 252°
2026-04-18 10:05 50.06127 8.65604 1358 ft 134 kts 251°
2026-04-18 10:06 50.05810 8.64240 1158 ft 134 kts 252°
2026-04-18 10:06 50.05501 8.62879 960 ft 133 kts 252°
2026-04-18 10:06 50.05170 8.61522 787 ft 135 kts 252°
2026-04-18 10:06 50.04853 8.60152 598 ft 135 kts 252°
2026-04-18 10:07 50.04526 8.58782 418 ft 136 kts 251°
2026-04-18 10:07 50.04222 8.57493 366 ft 112 kts 251°
2026-04-18 10:07 50.04013 8.56597 356 ft 70 kts 250°
2026-04-18 10:07 50.03891 8.56052 357 ft 17 kts 258°
2026-04-18 10:08 50.03888 8.55855 350 ft 19 kts 277°
2026-04-18 10:08 50.03908 8.55650 348 ft 4 kts 280°
2026-04-18 10:08 50.03908 8.55649 348 ft 0 kts 280°
2026-04-18 10:09 50.03909 8.55645 348 ft 1 kts 280°
2026-04-18 10:09 50.03911 8.55627 353 ft 2 kts 280°
2026-04-18 10:09 50.03915 8.55598 348 ft 3 kts 281°
2026-04-18 10:10 50.03919 8.55563 349 ft 3 kts 281°
2026-04-18 10:10 50.03925 8.55525 356 ft 4 kts 299°
2026-04-18 10:10 50.03951 8.55549 349 ft 7 kts 69°
2026-04-18 10:10 50.03977 8.55660 351 ft 14 kts 70°
2026-04-18 10:11 50.04019 8.55829 354 ft 18 kts 69°
2026-04-18 10:11 50.04061 8.56006 354 ft 17 kts 69°
2026-04-18 10:11 50.04103 8.56178 357 ft 17 kts 69°
2026-04-18 10:11 50.04147 8.56325 358 ft 6 kts 29°
2026-04-18 10:12 50.04168 8.56299 361 ft 5 kts 319°
2026-04-18 10:12 50.04196 8.56266 358 ft 3 kts 338°
2026-04-18 10:12 50.04235 8.56244 358 ft 9 kts 345°
2026-04-18 10:12 50.04272 8.56225 357 ft 4 kts 332°
2026-04-18 10:13 50.04292 8.56175 358 ft 15 kts 281°
2026-04-18 10:13 50.04345 8.56057 358 ft 12 kts 340°
2026-04-18 10:13 50.04415 8.56024 356 ft 9 kts 355°
2026-04-18 10:13 50.04443 8.56074 356 ft 5 kts 69°
2026-04-18 10:14 50.04450 8.56113 359 ft 2 kts 90°
2026-04-18 10:14 50.04443 8.56130 356 ft 4 kts 128°